GPATA ZZZZ-EGBJ

Flight info

Callsign GPATA
Flight time N/A
Altitude 2000
Route VFR
Aircraft R44/L-VGD/C

Departure

Time N/A
Airport ZZZZ

Arrival

Time 2026-04-22 14:11
Airport Gloucestershire Airport (EGBJ)
Time Latitude Longitude Altitude Speed Heading
2026-04-22 13:50 51.97182 -2.86701 337 ft 0 kts 76°
2026-04-22 13:53 51.97195 -2.86589 405 ft 27 kts 81°
2026-04-22 13:53 51.97219 -2.86098 489 ft 59 kts 85°
2026-04-22 13:53 51.97232 -2.85345 562 ft 71 kts 84°
2026-04-22 13:54 51.97269 -2.84490 640 ft 78 kts 88°
2026-04-22 13:54 51.97186 -2.83579 642 ft 90 kts 95°
2026-04-22 13:54 51.97097 -2.82528 602 ft 96 kts 91°
2026-04-22 13:54 51.97072 -2.81476 656 ft 91 kts 86°
2026-04-22 13:55 51.97057 -2.80446 645 ft 88 kts 87°
2026-04-22 13:55 51.97056 -2.79489 738 ft 85 kts 89°
2026-04-22 13:55 51.97082 -2.78521 791 ft 85 kts 86°
2026-04-22 13:55 51.97148 -2.77523 763 ft 94 kts 81°
2026-04-22 13:56 51.97192 -2.76481 886 ft 88 kts 88°
2026-04-22 13:56 51.97077 -2.75484 881 ft 92 kts 98°
2026-04-22 13:56 51.96953 -2.74462 875 ft 90 kts 94°
2026-04-22 13:56 51.96859 -2.73511 929 ft 84 kts 97°
2026-04-22 13:57 51.96724 -2.72593 911 ft 87 kts 103°
2026-04-22 13:57 51.96552 -2.71631 920 ft 89 kts 101°
2026-04-22 13:57 51.96389 -2.70669 987 ft 89 kts 101°
2026-04-22 13:57 51.96193 -2.69717 1036 ft 88 kts 104°
2026-04-22 13:58 51.95945 -2.68789 1015 ft 92 kts 107°
2026-04-22 13:58 51.95707 -2.67826 1010 ft 89 kts 101°
2026-04-22 13:58 51.95533 -2.66873 958 ft 90 kts 99°
2026-04-22 13:58 51.95355 -2.65894 912 ft 91 kts 99°
2026-04-22 13:59 51.95184 -2.64947 956 ft 86 kts 101°
2026-04-22 13:59 51.94987 -2.63996 896 ft 91 kts 102°
2026-04-22 13:59 51.94767 -2.63072 932 ft 88 kts 105°
2026-04-22 13:59 51.94584 -2.62103 808 ft 90 kts 97°
2026-04-22 14:00 51.94435 -2.61132 876 ft 87 kts 98°
2026-04-22 14:00 51.94344 -2.60152 943 ft 89 kts 89°
2026-04-22 14:00 51.94350 -2.59168 1043 ft 85 kts 83°
2026-04-22 14:00 51.94386 -2.58186 1028 ft 91 kts 84°
2026-04-22 14:01 51.94437 -2.57174 1103 ft 87 kts 81°
2026-04-22 14:01 51.94510 -2.56532 1204 ft 83 kts 79°
2026-04-22 14:01 51.94628 -2.55641 1285 ft 82 kts 85°
2026-04-22 14:01 51.94665 -2.54691 1347 ft 83 kts 86°
2026-04-22 14:02 51.94711 -2.53718 1372 ft 90 kts 85°
2026-04-22 14:02 51.94736 -2.52708 1448 ft 92 kts 90°
2026-04-22 14:02 51.94689 -2.51607 1274 ft 104 kts 90°
2026-04-22 14:02 51.94597 -2.50451 1274 ft 101 kts 95°
2026-04-22 14:03 51.94413 -2.49351 1188 ft 100 kts 100°
2026-04-22 14:03 51.94181 -2.48272 1069 ft 101 kts 103°
2026-04-22 14:03 51.93912 -2.47228 992 ft 100 kts 102°
2026-04-22 14:03 51.93661 -2.46182 924 ft 100 kts 104°
2026-04-22 14:04 51.93496 -2.45079 819 ft 101 kts 95°
2026-04-22 14:04 51.93415 -2.43943 727 ft 103 kts 89°
2026-04-22 14:04 51.93412 -2.42764 606 ft 103 kts 86°
2026-04-22 14:04 51.93396 -2.41669 604 ft 95 kts 91°
2026-04-22 14:05 51.93297 -2.40594 567 ft 96 kts 94°
2026-04-22 14:05 51.93171 -2.39526 511 ft 98 kts 100°
2026-04-22 14:05 51.92615 -2.37499 470 ft 98 kts 108°
2026-04-22 14:06 51.92285 -2.36532 479 ft 99 kts 112°
2026-04-22 14:06 51.91918 -2.35607 489 ft 96 kts 111°
2026-04-22 14:06 51.91592 -2.34677 532 ft 94 kts 107°
2026-04-22 14:06 51.91331 -2.33726 546 ft 90 kts 102°
2026-04-22 14:07 51.91118 -2.32794 634 ft 88 kts 102°
2026-04-22 14:07 51.90890 -2.31868 626 ft 88 kts 103°
2026-04-22 14:07 51.90709 -2.30922 640 ft 87 kts 100°
2026-04-22 14:07 51.90517 -2.29961 620 ft 91 kts 104°
2026-04-22 14:08 51.90295 -2.29010 587 ft 92 kts 105°
2026-04-22 14:08 51.90056 -2.28049 593 ft 93 kts 101°
2026-04-22 14:08 51.89886 -2.27033 615 ft 94 kts 96°
2026-04-22 14:08 51.89760 -2.26022 687 ft 91 kts 95°
2026-04-22 14:09 51.89643 -2.25007 711 ft 92 kts 93°
2026-04-22 14:09 51.89548 -2.24003 779 ft 91 kts 96°
2026-04-22 14:09 51.89360 -2.22939 629 ft 103 kts 96°
2026-04-22 14:09 51.89240 -2.21815 548 ft 101 kts 94°
2026-04-22 14:10 51.89212 -2.20688 483 ft 100 kts 87°
2026-04-22 14:10 51.89275 -2.19543 321 ft 103 kts 82°
2026-04-22 14:10 51.89338 -2.18399 230 ft 100 kts 85°
2026-04-22 14:10 51.89388 -2.17292 175 ft 95 kts 84°
2026-04-22 14:11 51.89433 -2.16490 195 ft 50 kts 88°
2026-04-22 14:11 51.89396 -2.16125 163 ft 25 kts 101°
2026-04-22 14:11 51.89349 -2.15960 122 ft 12 kts 98°
2026-04-22 14:11 51.89339 -2.15920 94 ft 0 kts 96°
2026-04-22 14:12 51.89337 -2.15920 90 ft 0 kts 96°